Location: Asni�res
(49.1337°N, 2.3555°E)
Time: 00:16:06
(UTC+00:00)

CZ-4C R/B - Pass Details

Date: 16 October 2021
Orbit: 403 x 482 km, 97.7° (Epoch: 27 November)

Event Time Altitude Azimuth Distance (km) Brightness Sun altitude
Rises 18:47:25 0° 6° (N) 2,524 6.7 -18.6°
Reaches altitude 10° 18:49:35 10° 358° (N) 1,629 5.8 -18.9°
Maximum altitude 18:52:49 37° 290° (WNW) 734 4.5 -19.5°
Drops below altitude 10° 18:55:58 10° 222° (SW) 1,574 6.1 -20.0°
Sets 18:58:02 0° 214° (SW) 2,425 6.9 -20.3°
